User: anonymous   Login
Location: Cuzcurrita-R�o Tir�n
(42.5415°N, 2.9642°W)
Time: 09:18:08
(UTC+00:00)
Language:

CZ-2D R/B - Orbit

View from above orbital plane
View from above orbital plane
View from above satellite
View from above satellite

Ground track
Ground track

The orbit data is extracted from the following two-line orbital elements,

1 28738U 05024B   20157.60130504 +.00000330 +00000-0 +22840-4 0  9999
2 28738 097.3831 180.5689 0010835 218.5590 141.4867 15.12035001819619
Epoch (UTC): 05 June 2020 14:25:52
Eccentricity: 0.0010835
inclination: 97.3831°
perigee height: 522 km
apogee height: 537 km
right ascension of ascending node: 180.5689°
argument of perigee: 218.5590°
revolutions per day: 15.12035001
mean anomaly at epoch: 141.4867°
orbit number at epoch: 81961

The dashed part of the orbit path shows where the satellite is in the earth's shadow,  

DLR